This demonstration page uses our WeatherBlox Daily Observations layout. Learn more.

Left ArrowRight Arrow

Hourly Observations for February 23, 2019

Temp ( °F °C ) Dew Point ( °F °C ) Humidity (%) Winds ( mph kmh ) Pressure ( in mb ) Visibility ( mi km ) Precip ( " mm )
12:15 am 00:15 Clear 36 2 34 1 93 93 Calm 30.46 1031 10 16.0934 0 0
12:35 am 00:35 Clear 36 2 34 1 93 93 Calm 30.47 1032 10 16.0934 0 0
12:55 am 00:55 Clear 36 2 34 1 93 93 Calm 30.48 1032 10 16.0934 0 0
1:15 am 01:15 Clear 36 2 32 0 87 87 Calm 30.48 1032 10 16.0934 0 0
1:35 am 01:35 Clear 36 2 32 0 87 87 Calm 30.48 1032 10 16.0934 0 0
1:55 am 01:55 Clear 36 2 32 0 87 87 Calm 30.47 1032 10 16.0934 0 0
2:15 am 02:15 Clear 37 3 32 0 81 81 NE 3 6 30.47 1032 10 16.0934 0 0
2:35 am 02:35 Clear 37 3 32 0 81 81 NE 5 7 30.46 1031 10 16.0934 0 0
2:55 am 02:55 Clear 37 3 32 0 81 81 Calm 30.45 1031 10 16.0934 0 0
3:15 am 03:15 Clear 36 2 32 0 87 87 Calm 30.45 1031 10 16.0934 0 0
3:35 am 03:35 Clear 37 3 32 0 81 81 NNE 3 6 30.45 1031 10 16.0934 0 0
3:55 am 03:55 Clear 37 3 32 0 81 81 Calm 30.44 1031 10 16.0934 0 0
4:15 am 04:15 Clear 36 2 32 0 87 87 Calm 30.45 1031 10 16.0934 0 0
4:35 am 04:35 Clear 36 2 32 0 87 87 Calm 30.44 1031 10 16.0934 0 0
4:55 am 04:55 Clear 36 2 32 0 87 87 Calm 30.44 1031 10 16.0934 0 0
5:15 am 05:15 Clear 36 2 32 0 87 87 NNE 3 6 30.44 1031 10 16.0934 0 0
5:35 am 05:35 Clear 36 2 32 0 87 87 Calm 30.45 1031 10 16.0934 0 0
5:55 am 05:55 Clear 36 2 32 0 87 87 Calm 30.45 1031 10 16.0934 0 0
6:15 am 06:15 Clear 36 2 32 0 87 87 Calm 30.46 1031 7 11.26538 0 0
6:35 am 06:35 Clear 36 2 32 0 87 87 NNE 3 6 30.46 1031 10 16.0934 0 0
6:55 am 06:55 Sunny 36 2 32 0 87 87 NE 3 6 30.47 1032 10 16.0934 0 0
7:15 am 07:15 Sunny 36 2 32 0 87 87 Calm 30.47 1032 7 11.26538 0 0
7:35 am 07:35 Sunny 36 2 32 0 87 87 Calm 30.47 1032 7 11.26538 0 0
7:55 am 07:55 Mostly Cloudy 37 3 32 0 81 81 NE 3 6 30.47 1032 10 16.0934 0 0
8:15 am 08:15 Mostly Cloudy 37 3 32 0 81 81 Calm 30.47 1032 10 16.0934 0 0
8:35 am 08:35 Mostly Cloudy 37 3 32 0 81 81 Calm 30.49 1032 10 16.0934 0 0
8:55 am 08:55 Cloudy 37 3 32 0 81 81 Calm 30.49 1032 10 16.0934 0 0
9:15 am 09:15 Cloudy 37 3 32 0 81 81 E 3 6 30.47 1032 10 16.0934 0 0
9:35 am 09:35 Cloudy 37 3 32 0 81 81 ESE 3 6 30.47 1032 10 16.0934 0 0
9:55 am 09:55 Cloudy 39 4 32 0 75 75 ENE 3 6 30.47 1032 10 16.0934 0 0
10:15 am 10:15 Cloudy 39 4 32 0 75 75 ESE 5 7 30.47 1032 10 16.0934 0 0
10:35 am 10:35 Cloudy 39 4 32 0 75 75 ENE 5 7 30.48 1032 10 16.0934 0 0
10:55 am 10:55 Cloudy 39 4 32 0 75 75 SE 7 11 30.47 1032 10 16.0934 0 0
11:15 am 11:15 Cloudy 39 4 34 1 81 81 SE 8 13 30.45 1031 10 16.0934 0 0
11:35 am 11:35 Cloudy 39 4 34 1 81 81 ESE 3 6 30.45 1031 10 16.0934 0 0
11:55 am 11:55 Cloudy 39 4 34 1 81 81 SE 5 7 30.44 1031 10 16.0934 0 0
12:15 pm 12:15 Cloudy 39 4 36 2 87 87 SE 6 9 30.42 1030 5 8.0467 0 0
12:35 pm 12:35 Cloudy 39 4 36 2 87 87 SE 6 9 30.4 1029 5 8.0467 0 0
12:55 pm 12:55 Cloudy 39 4 36 2 87 87 ESE 3 6 30.38 1029 7 11.26538 0 0
1:15 pm 13:15 Cloudy 39 4 36 2 87 87 SE 6 9 30.37 1028 7 11.26538 0 0
1:35 pm 13:35 Cloudy 37 3 36 2 93 93 E 3 6 30.35 1028 7 11.26538 0 0
1:55 pm 13:55 Cloudy 39 4 36 2 87 87 Calm 30.35 1028 10 16.0934 0 0
2:15 pm 14:15 Cloudy 39 4 36 2 87 87 E 3 6 30.36 1028 10 16.0934 0 0
2:35 pm 14:35 Cloudy 37 3 36 2 93 93 E 3 6 30.35 1028 7 11.26538 0 0
2:55 pm 14:55 Cloudy 37 3 36 2 93 93 E 5 7 30.34 1027 5 8.0467 0 0
3:15 pm 15:15 Cloudy 37 3 36 2 93 93 E 5 7 30.32 1027 5 8.0467 0 0
3:35 pm 15:35 Cloudy 37 3 36 2 93 93 ESE 8 13 30.3 1026 7 11.26538 0 0
3:55 pm 15:55 Cloudy 37 3 36 2 93 93 ESE 7 11 30.28 1025 7 11.26538 0 0
4:15 pm 16:15 Cloudy 37 3 36 2 93 93 ENE 3 6 30.28 1025 7 11.26538 0 0
4:35 pm 16:35 Cloudy 37 3 36 2 93 93 NE 5 7 30.29 1026 5 8.0467 0 0
4:55 pm 16:55 Cloudy 37 3 36 2 93 93 NE 5 7 30.3 1026 2 3.21868 0 0
5:15 pm 17:15 Cloudy 36 2 36 2 100 100 ENE 5 7 30.28 1025 0.75 1.207005 0 0
5:35 pm 17:35 Cloudy 36 2 36 2 100 100 ENE 3 6 30.28 1025 0.75 1.207005 0 0
5:55 pm 17:55 Cloudy 36 2 36 2 100 100 NE 5 7 30.3 1026 1.75 2.816345 0 0
6:15 pm 18:15 Cloudy 36 2 36 2 100 100 NE 6 9 30.28 1025 1.75 2.816345 0 0
6:35 pm 18:35 Cloudy 36 2 36 2 100 100 NE 3 6 30.28 1025 1.75 2.816345 0 0
6:55 pm 18:55 Cloudy 36 2 36 2 100 100 Calm 30.28 1025 2.5 4.02335 0 0
7:15 pm 19:15 Cloudy 36 2 36 2 100 100 ENE 3 6 30.26 1025 2.5 4.02335 0 0
7:35 pm 19:35 Cloudy 36 2 36 2 100 100 ENE 5 7 30.25 1024 2.5 4.02335 0 0
7:55 pm 19:55 Cloudy 36 2 36 2 100 100 ENE 3 6 30.23 1024 2.5 4.02335 0 0
8:15 pm 20:15 Cloudy 36 2 36 2 100 100 Calm 30.24 1024 4 6.43736 0 0
8:35 pm 20:35 Cloudy 36 2 36 2 100 100 Calm 30.23 1024 3 4.82802 0 0
8:55 pm 20:55 Cloudy 36 2 36 2 100 100 Calm 30.23 1024 3 4.82802 0 0
9:15 pm 21:15 Cloudy 36 2 36 2 100 100 NE 3 6 30.2 1023 1.75 2.816345 0 0
9:35 pm 21:35 Cloudy 36 2 36 2 100 100 NE 3 6 30.19 1022 1.75 2.816345 0 0
9:55 pm 21:55 Cloudy 36 2 36 2 100 100 Calm 30.2 1023 2 3.21868 0 0
10:15 pm 22:15 Cloudy 36 2 36 2 100 100 Calm 30.18 1022 2.5 4.02335 0 0
10:35 pm 22:35 Cloudy 36 2 36 2 100 100 Calm 30.18 1022 2 3.21868 0 0
10:55 pm 22:55 Cloudy 36 2 36 2 100 100 NE 5 7 30.15 1021 1.75 2.816345 0 0
11:15 pm 23:15 Cloudy 34 1 34 1 100 100 Calm 30.14 1021 1.75 2.816345 0 0
11:35 pm 23:35 Cloudy 36 2 36 2 100 100 Calm 30.13 1020 2 3.21868 0 0
11:55 pm 23:55 Cloudy 34 1 34 1 100 100 Calm 30.12 1020 2 3.21868 0 0

Powered by AerisWeather